Regional Weather Roundup
Issued by NWS Wakefield, VA

Home | Current Version | Previous Version | Text Only | Print | Product List | Glossary Off
Versions: 1 2 3 4 5 6 7 8 9 10 11 12 13 14 15 16 17 18 19 20 21 22 23 24 25 26 27 28 29 30 31 32 33 34 35 36 37 38 39 40 41 42 43 44 45 46 47 48 49 50

000
ASUS41 KAKQ 261610
RWRAKQ

REGIONAL WEATHER ROUNDUP
NATIONAL WEATHER SERVICE WAKEFIELD VA
1100 AM EST MON JAN 26 2015

Note: "fair" indicates few or no clouds below 12,000 feet with no
significant weather and/or obstructions to visibility. * = Denotes
station may not report precipitation (e.g., rain,snow,etc.),
thunder or fog.

VAZ042-051-052>054-056-261700-
NORTHERN VIRGINIA

CITY           SKY/WX    TMP DP  RH WIND       PRES   REMARKS
WASH NATIONAL  FLURRIES  36  31  82 NE13      29.80F
DULLES         CLOUDY    33  30  88 E7        29.80R
FORT BELVOIR   LGT RAIN  35  32  90 VRB6      29.79F
QUANTICO       LGT RAIN  37  33  85 NE9       29.79F
FREDERICKSBRG* DRIZZLE   38  38 100 NE7       29.76F
STAFFORD*      DRIZZLE   37  32  82 NE6       29.81S
WARRENTON      RAIN      36  36 100 NE5       29.77S
CULPEPER*      RAIN      37  36  93 NE5       29.77F
MANASSAS*      CLOUDY    36  36 100 E3        29.79R
LEESBURG*      CLOUDY    32  32 100 NE6       29.81R
WINCHESTER     LGT SNOW  34  30  86 NE5       29.78S
FRONT ROYAL*   CLOUDY    32  32 100 NE5       29.76R
LURAY*         LGT RAIN  36  36 100 N7        29.74R
$$

VAZ048-049-060>072-079>083-261700-
CENTRAL AND SOUTH CENTRAL VIRGINIA

CITY           SKY/WX    TMP DP  RH WIND       PRES   REMARKS
RICHMOND       CLOUDY    47  41  80 NE9       29.70F
CHESTERFIELD*  CLOUDY    45  30  57 NE6       29.71F
PETERSBURG*    LGT RAIN  45  40  83 NE5       29.70F
HANOVER        CLOUDY    41  39  93 N5        29.73F
TAPPAHANNOCK*  CLOUDY    43  35  74 NE5       29.73F
QUINTON*       CLOUDY    47  38  73 E9        29.71F
CHARLOTTSVILLE LGT RAIN  36  34  92 N8        29.73S FOG
GORDONSVILLE*  CLOUDY    38  37  96 NE6       29.74S
ORANGE*        LGT RAIN  39  37  93 N5        29.76S
LOUISA*        DRIZZLE   39  37  93 E7        29.72S
BUMPASS*       CLOUDY    38  37  97 NE5       29.73F
FARMVILLE*     DRIZZLE   42  42 100 N6        29.69F
CREWE*         CLOUDY    40  39  94 CALM      29.69F
FORT PICKETT*  CLOUDY    43  41  94 E3        29.69S
CHASE CITY*    CLOUDY    43  43 100 NE3       29.67F
CLARKSVILLE*   CLOUDY    41  39  93 NE5       29.66F
SOUTH HILL*    CLOUDY    41  39  94 NE3       29.73F
LAWRENCEVILLE* CLOUDY    42  41  93 E3        29.68F
EMPORIA*       PTSUNNY   46  37  71 CALM      29.69F
$$

VAZ088>098-261700-
SOUTHEAST VIRGINIA

CITY           SKY/WX    TMP DP  RH WIND       PRES   REMARKS
NORFOLK        PTSUNNY   45  39  79 N6        29.67F
VIRGINIA BEACH PTSUNNY   50  42  74 N6        29.65F
NORFOLK NAVAL  PTSUNNY   48  39  71 N7        29.69F
WEST POINT*    MOSUNNY   51  38  62 E9        29.71F
SALUDA*        CLOUDY    45  38  77 NE6       29.70F
NEWPORT NEWS   MOSUNNY   51  39  63 NE8       29.68F
LANGLEY AFB    MOSUNNY   46  40  81 N8        29.68F
FORT EUSTIS    MOSUNNY   51  41  69 VRB5      29.66F
WILLIAMSBURG*    N/A     55  43  62 CALM      29.70F
HR EXEC AP*    PTSUNNY   46  39  76 N5        29.70F
FRANKLIN*      MOSUNNY   49  38  66 NE5       29.67F
WAKEFIELD      PTSUNNY   49  36  61 E5        29.68F
$$

VAZ020-022-025-037-045-261700-
WEST CENTRAL AND SOUTHWEST VIRGINIA

CITY           SKY/WX    TMP DP  RH WIND       PRES   REMARKS
STAUNTON*      LGT SNOW  33  32  94 CALM      29.73S VSB 1
WAYNESBORO*    CLOUDY    32  32 100 CALM      29.70S
HOT SPRINGS VA SNOW      33  33 100 CALM      29.58  VSB<1/4
LYNCHBURG      CLOUDY    39  38  96 NE12      29.69F FOG
DANVILLE       CLOUDY    46  38  73 CALM      29.67F
SOUTH BOSTON*  CLOUDY    42  40  94 NE5       29.67F
MARTINSVILLE   CLOUDY    43  38  83 N6        29.69S
ROANOKE        CLOUDY    41  34  76 N5        29.69S
BLACKSBURG     CLOUDY    40  33  78 CALM      29.68S
DUBLIN*        CLOUDY    41  36  83 CALM      29.67S
MARION*        LGT RAIN  38  36  93 W8        29.68R
HILLSVILLE*    CLOUDY    36  35  96 NW9       29.64R
RICHLANDS*     CLOUDY    36  34  93 W6        29.66S
WISE*          LGT SNOW  32  32 100 NW13      29.71R WCI  22
ABINGDON*      DRIZZLE   39  38  94 W8        29.69S
$$

MDZ021>025-VAZ099-100-261700-
SOUTHERN MARYLAND AND THE DELMARVA PENINSULA

CITY           SKY/WX    TMP DP  RH WIND       PRES   REMARKS
PATUXENT RIVER CLOUDY    39  35  86 N9        29.75F
BAY BRIDGE APT LGT RAIN  32  32 100 NE6       29.81F
LEONARDTOWN    CLOUDY    36  34  93 NE5       29.76F
DOVER          CLOUDY    35  35 100 N13       29.80F
GEORGETOWN     CLOUDY    41  36  82 NE15G24   29.76F
EASTON         CLOUDY    37  37 100 E17G29    29.82F
CAMBRIDGE      CLOUDY    39  34  81 NE8       29.75F
SALISBURY      CLOUDY    47  39  74 NE6       29.72F
OCEAN CITY     CLOUDY    44  41  89 NE13      29.69F
WALLOPS ISLAND CLOUDY    46  42  86 NE10      29.69F
ACCOMACK*      CLOUDY    48  41  76 NE8       29.68F
$$

NCZ012>017-030>032-261700-
NORTH CENTRAL AND EASTERN NORTH CAROLINA

CITY           SKY/WX    TMP DP  RH WIND       PRES   REMARKS
ROANOKE RAPIDS CLOUDY    43  37  81 N6        29.67F
RALEIGH        PTSUNNY   46  41  82 NE5       29.65S
ELIZABETH CITY CLOUDY    48  43  82 N5        29.65F
AHOSKIE*       PTSUNNY   44  38  81 N3        29.66F
EDENTON*       CLOUDY    47  43  86 NE5       29.64F
CURRITUCK*     CLOUDY    49  43  79 N5        29.66F
KILL DEVIL HLS CLOUDY    50  47  90 NE3       29.62F
MANTEO         CLOUDY    50  46  87 CALM      29.63F
CAPE HATTERAS  CLOUDY    51  43  74 CALM      29.63F
TARBORO*       CLOUDY    47  40  75 NW5       29.68R
GOLDSBORO      PTSUNNY  N/A N/A N/A NE8       29.63F
WASHINGTON     CLOUDY    45  41  84 CALM      29.64F
GREENVILLE     MOSUNNY   45  41  87 N6        29.68F
NEW BERN       CLOUDY    48  42  80 CALM      29.67S
WILMINGTON     CLOUDY    50  45  83 NW10      29.63F
$$

VAZ048-261700-
ELSEWHERE

CITY           SKY/WX    TMP DP  RH WIND       PRES   REMARKS
HARRISBURG PA  CLOUDY    24  18  77 NE9       29.87F
BALTIMORE      LGT SNOW  31  28  89 NE12      29.81F VSB 1   WCI  22
ANNAPOLIS      LGT SNOW  32  29  88 NE8       29.81F FOG
ANDREWS AFB    LGT SNOW  33  32  96 NE16      29.77F FOG     WCI  22
PHILADELPHIA   LGT SNOW  29  24  82 NE16      29.87F WCI  17
HENDERSON NC   LGT RAIN  44  41  91 NE8       29.65F
GREENSBORO     LGT RAIN  45  36  70 NW5       29.64F
ROCKY MOUNT    CLOUDY    45  41  86 N7        29.65S
$$

VAZ100-261700-
MARINE

STATION/POSITION TIME  TEMP    WIND        PRES    WAVE   SWELL
                       AIR SEA DIR/SP/G            HT/PER HT/PER
                 (UTC) (F)     (DEG/KT/KT) (MB)    (FT/S) (FT/S)
BRANDYWINE LGT   1600   39 37   60/ 24/ 29 1007.6F
CAPE MAY NJ      1600   40 39   60/ 11/ 19 1007.0F
LEWES DE         1600   40 38   70/ 24/ 27 1006.9F
15NM E FENWICK I 1600   44 43              1005.2F   6/ 6
OCEAN-CITY-INLET 1600   43 40   70/ 12/ 20 1005.5F
WACHAPREAGUE VA  1600   46 42   40/  6/ 10 1005.0F
THOMAS POINT MD  1600   33 37   40/ 16/ 17 1009.9F
GOOSES REEF MD   1600   36     VRB 16/ 19  1007.2F
COVE POINT MD    1600   36      50/  9/ 12 1007.7F
SOLOMONS ISLAND  1600      39                N/A
BISHOPS HEAD MD  1600   41 39   30/ 10/ 14 1006.1F
PINEY POINT MD   1600           60/ 13/ 17   N/A
POTOMAC MD       1600   40      40/ 16/ 17 1005.8F
CAMBRIDGE MD     1600   37 36   50/ 11/ 14 1007.8F
LEWISETTA VA     1600   40 39   40/  8/ 12 1006.3F
RAPPAHANNOCK LGT 1600          340/ 13/ 13 1005.6F
STINGRAY PT      1600   40      10/ 12/ 14 1006.4F
YORK RVR RNG VA  1600   42     360/  9/ 10 1004.5F
YORKTOWN VA      1600   45 41   20/  5/  6 1005.0F
JAMESTOWN VA     1600   46     100/  4/  8   N/A
DOMINION TERM VA 1600   46      20/  5/  6 1005.0F
KIPTOPEKE VA     1600      46   50/  5/ 10   N/A
CHES BAY BRIDGE  1600   43 41  320/  6/  9 1004.2S
CAPE HENRY VA    1600   43     360/  1/  5 1003.0F
CHESAPEAKE LGHT  1500   46      20/  6/  7 1006.1F
WILLOUBY STN VA  1600   45     350/  8/  9 1005.5R
S CRANEY ISL VA  1600          360/  5/  7 1004.9F
CAPE HENRY BUOY  1600      44                N/A     2/ 8
1ST LANDING BUOY 1600   43      30/  8/  8 1004.3F
CAPE CHARLES BUO 1600      42                N/A     2/ 9   2/ 9
OFFSHORE WE BUOY 1600      47                N/A     2/ 8   2/ 8
64NM E OF VA BCH 1600   54 52   50/ 14/ 17 1002.4F   3/ 8   2/ 8
DUCK PIER NC     1600   46 44   20/  5/  8 1002.9R
44100 DUCK FRF   1600      44                N/A     2/ 8
44056 DUCK FRF   1600      43                N/A     2/ 9
OREGON INLET NC  1600   49 47  340/  4/  5 1003.3F
HATTERAS NC      1600   51 54   20/  3/  4 1003.7F



USA.gov is the U.S. government's official web portal to all federal, state and local government web resources and services.